Regional Weather Roundup
Issued by NWS Boston, MA

Current Version | Previous Version | Text Only | Print | Product List | Glossary Off
Versions: 1 2 3 4 5 6 7 8 9 10 11 12 13 14 15 16 17 18 19 20 21 22 23 24 25 26 27 28
000 ASUS41 KBOX 290210 RWRBOX REGIONAL WEATHER ROUNDUP NATIONAL WEATHER SERVICE TAUNTON MA 1000 PM EDT SUN MAY 28 2017 NOTE: "FAIR" INDICATES FEW OR NO CLOUDS BELOW 12,000 FEET WITH NO SIGNIFICANT WEATHER AND/OR OBSTRUCTIONS TO VISIBILITY. MAZALL-290300- EASTERN MASSACHUSETTS CITY SKY/WX TMP DP RH WIND PRES REMARKS BOSTON CLOUDY 60 48 64 S9 30.00R BEVERLY CLOUDY 57 53 86 SE5 29.99S LAWRENCE CLOUDY 58 53 84 NE3 30.01R BEDFORD CLOUDY 60 48 64 S3 29.98R BLUE HILL N/A 56 45 66 S10 29.99S NORWOOD CLOUDY 58 48 69 S5 29.99S MARSHFIELD CLOUDY 57 50 77 S7 30.01S PLYMOUTH CLOUDY 53 48 83 CALM 30.02S TAUNTON MOCLDY 54 47 77 S3 30.01R NEW BEDFORD PTCLDY 53 49 86 S6 30.01R $$ MAZALL-290300- CAPE COD AND THE ISLANDS CITY SKY/WX TMP DP RH WIND PRES REMARKS FALMOUTH N/A N/A N/A N/A MISG N/A HYANNIS CLOUDY 53 49 86 SE5 30.01F CHATHAM CLOUDY 50 48 93 S3 30.05R PROVINCETOWN CLOUDY 52 48 86 S10 30.03S NANTUCKET PTCLDY 50 46 86 SE8 30.03S MARTHAS VNYRD CLOUDY 52 47 83 SE9 30.02S $$ MAZALL-290300- CENTRAL AND WESTERN MASSACHUSETTS CITY SKY/WX TMP DP RH WIND PRES REMARKS WORCESTER CLOUDY 57 46 66 S9 30.00R FITCHBURG CLOUDY 64 52 64 S7 29.99R ORANGE CLOUDY 61 54 77 S5 29.97R SPRINGFIELD MOCLDY 60 49 68 S10 29.96S WESTFIELD NOT AVBL NORTH ADAMS N/A N/A N/A N/A MISG 29.94R $$ RIZALL-290300- RHODE ISLAND CITY SKY/WX TMP DP RH WIND PRES REMARKS PROVIDENCE MOCLDY 54 51 90 S5 30.01F NEWPORT PTCLDY 53 51 93 S6 30.01S BLOCK ISLAND CLOUDY 54 52 93 SE8 29.99F SMITHFIELD CLOUDY 53 50 89 CALM 30.01S WESTERLY CLOUDY 56 52 86 E5 30.00F $$ CTZALL-290300- CONNECTICUT CITY SKY/WX TMP DP RH WIND PRES REMARKS BRADLEY INTL MOCLDY 59 49 69 SE7 29.98R HARTFORD CLOUDY 59 49 69 SE5 29.98S BRIDGEPORT CLOUDY 60 52 74 E8 29.96S DANBURY MOCLDY 57 49 74 E3 29.97R GROTON CLOUDY 55 51 86 E7 29.98F NEW HAVEN CLOUDY 57 52 83 E6 29.97S CHESTER MOCLDY 55 54 94 CALM 29.99R MERIDEN CLOUDY 57 49 74 SE5 29.98S WILLIMANTIC CLOUDY 58 49 72 SE5 30.00S OXFORD N/A 55 45 67 SE5 29.98S $$ MEZ002-015-021-024-NHZ003-005-008-011-012-014-VTZ005-008-290300- NORTHERN NEW ENGLAND CITY SKY/WX TMP DP RH WIND PRES REMARKS PORTLAND ME CLOUDY 48 46 93 SE3 30.04S BANGOR ME PTCLDY 48 44 86 S7 30.04S CONCORD NH CLOUDY 56 51 84 SE5 29.99R MANCHESTER NH CLOUDY 57 50 77 E5 29.98R NASHUA NH CLOUDY 61 55 81 E6 29.99R PORTSMOUTH NH CLOUDY 50 48 93 E5 29.99F FOG JAFFREY NH CLOUDY 60 58 92 CALM 29.99R KEENE NH MOCLDY 62 57 83 S6 29.96S BURLINGTON VT CLOUDY 68 53 58 S6 29.88R MT. WASHINGTON PTCLDY 45 25 45 SE12 N/A $$ NYZ052-076-290300- EASTERN NEW YORK CITY SKY/WX TMP DP RH WIND PRES REMARKS ALBANY CLOUDY 66 54 65 S14G24 29.90R NEW YORK CITY CLOUDY 63 50 62 SE8 29.93F $$ ANZALL-290300- MARINE OBSERVATIONS STATION/POSITION TIME TEMP WIND PRES VSBY WAVE AIR SEA DIR/SP/G HT/PER (UTC) (F) (DEG/KT/KT) (MB) (MI) (FT/S) BOSTON BUOY 0150 55 54 150/ 12/ 14 1015.1R 3/ 8 BUZZARDS BAY 0100 52 140/ 12/ 12 1016.7R NANTUCKET SOUND 0150 53 1017.0R 1/ 5 MASS BAY-STELLWA 0104 53 51 150/ 14/ 16 1015.2R 4/ 4 ISLE OF SHOALS 0100 49 110/ 8/ 8 1015.9R S OF BLOCK IS 0155 54 N/A 3/ 8 $$ ......................KEY......................... SKY/WX - SKY CONDITION/PRESENT WEATHER TMP - TEMPERATURE IN FAHRENHEIT DWPT - DEWPOINT IN FAHRENHEIT RH - RELATIVE HUMIDITY IN PERCENT WIND - DIRECTION AND SPEED IN MPH PRES - MEAN SEA LEVEL PRESSURE IN INCHES OF HG WCI - WIND CHILL INDEX VSB - VISIBILITY IN MILES HX - HEAT INDEX TC - TEMPERATURE IN CELSIUS VRB - VARIABLE WIND DIRECTION N/A - NOT AVAILABLE

USA.gov is the U.S. government's official web portal to all federal, state and local government web resources and services.